www.pogodaiklimat.ru
ПОГОДА в Санта-Инесе
Время
и дата
22:15 22.05
22:35 22.05
22:55 22.05
23:15 22.05
23:35 22.05
23:55 22.05
00:15 23.05
00:35 23.05
00:55 23.05
01:15 23.05
01:35 23.05
01:55 23.05
02:15 23.05
02:35 23.05
04:15 23.05
04:35 23.05
04:55 23.05
05:15 23.05
05:35 23.05
05:55 23.05
06:15 23.05
06:35 23.05
06:55 23.05
07:15 23.05
07:35 23.05
07:55 23.05
08:15 23.05
08:35 23.05
08:55 23.05
09:15 23.05
09:35 23.05
09:55 23.05
10:15 23.05
10:35 23.05
10:55 23.05
11:15 23.05
11:35 23.05
11:55 23.05
12:15 23.05
12:35 23.05
12:55 23.05
13:15 23.05
13:35 23.05
13:55 23.05
14:15 23.05
14:35 23.05
14:55 23.05
15:15 23.05
Ветер
(напр.,м/с)
Видим. Явления Облачность Т
(С)
Тd
(С)
f
(%)
Тe
(С)
Тes
(С)
Комфортность P
(гПа)
Po
(гПа)
Тmin
(С)
Tmax
(С)
R
(мм)
R24
(мм)
S
(см)
штиль 0 6 км дымка ясно +9.0 +9.0 100 +8 +8 991.3
штиль 0 6 км дымка ясно +9.0 +9.0 100 +8 +8 991.0
штиль 0 6 км дымка ясно +9.0 +9.0 100 +8 +8 990.7
штиль 0 6 км дымка 2/2 90 м +9.0 +8.0 93 +8 +8 990.3
штиль 0 6 км дымка 5/5 90 м +9.0 +8.0 93 +8 +8 990.3
штиль 0 6 км дымка 5/5 90 м +9.0 +8.0 93 +8 +8 990.3
штиль 0 6 км дымка 5/5 90 м +9.0 +8.0 93 +8 +8 990.3
штиль 0 6 км дымка 8/8 90 м +8.0 +8.0 100 +7 +7 990.3
штиль 0 5 км дымка 10/10 90 м +8.0 +8.0 100 +7 +7 990.0
штиль 0 5 км дымка 10/10 90 м +8.0 +8.0 100 +7 +7 990.0
ЮЗ 1 1 км дымка 10/10 90 м +8.0 +8.0 100 +6 +6 990.0
З 1 0 м туман 10/10 60 м +8.0 +8.0 100 +6 +6 990.0
штиль 0 0 м туман 10/10 60 м +8.0 +8.0 100 +7 +7 990.0
штиль 0 0 м туман 10/10 60 м +8.0 +8.0 100 +7 +7 990.0
штиль 0 400 м туман 10/10 60 м +8.0 +8.0 100 +7 +7 990.0
штиль 0 0 м туман 10/10 60 м +8.0 +8.0 100 +7 +7 990.0
штиль 0 0 м туман 10/10 60 м +8.0 +8.0 100 +7 +7 989.7
штиль 0 0 м туман 10/10 60 м +8.0 +8.0 100 +7 +7 990.0
штиль 0 0 м туман 10/10 60 м +8.0 +8.0 100 +7 +7 990.0
штиль 0 0 м туман 10/10 60 м +8.0 +8.0 100 +7 +7 989.7
штиль 0 0 м туман 10/10 60 м +8.0 +8.0 100 +7 +7 989.7
штиль 0 0 м туман 10/10 90 м +8.0 +9.0 100 +7 +7 989.7
штиль 0 3 км дымка 10/10 90 м +9.0 +9.0 100 +8 +8 989.7
штиль 0 5 км дымка 8/8 120 м +10.0 +10.0 100 +9 +10 989.7
З 1 6 км дымка 2/2 180 м +11.0 +10.0 94 +10 +12 989.7
ЮЗ 1 10 км мгла ясно +12.0 +10.0 88 +11 +15 989.7
З 1 11 км ясно +14.0 +10.0 77 +13 +19 989.7
ЮЗ 1 11 км ясно +16.0 +10.0 68 +16 +24 989.4
нст 1 13 км ясно +17.0 +10.0 63 +17 +25 989.4
ЮЗ 1 14 км ясно +19.0 +10.0 56 +20 +33 опасность
простуды
989.0
ЮЗ 1 14 км ясно +20.0 +9.0 49 +22 +34 комфорт 989.0
З 1 16 км ясно +22.0 +8.0 41 +23 +33 комфорт 988.7
З 1 14 км ясно +23.0 +8.0 38 +24 +38 комфорт 988.4
З 2 14 км ясно +24.0 +8.0 36 +24 +36 комфорт 988.0
ЮЗ 2 14 км ясно +25.0 +9.0 36 +26 +34 жарко 987.7
ЮЗ 2 14 км ясно +26.0 +9.0 34 +26 +37 жарко 987.4
З 2 14 км ясно +26.0 +9.0 34 +26 +37 жарко 987.4
ЮЗ 3 14 км ясно +26.0 +11.0 39 +27 +35 жарко 987.0
ЮЗ 3 14 км ясно +26.0 +11.0 39 +27 +33 жарко 987.0
З 3 13 км ясно +26.0 +10.0 37 +27 +33 жарко 986.7
З 4 11 км ясно +26.0 +9.0 34 +26 +30 жарко 986.7
З 3 11 км ясно +26.0 +9.0 34 +26 +32 жарко 986.7
З 4 11 км ясно +25.0 +9.0 36 +26 +29 жарко 986.7
З 4 11 км ясно +25.0 +9.0 36 +26 +28 жарко 986.4
З 4 11 км ясно +24.0 +9.0 38 +25 +28 комфорт 986.4
З 4 11 км ясно +24.0 +8.0 36 +24 +27 комфорт 986.1
З 3
{4}
11 км ясно +24.0 +8.0 36 +24 +29 комфорт 986.1
З 3
{4}
11 км ясно +24.0 +8.0 36 +24 +28 комфорт 986.1
Местоположение метеостанции Santa Ynez Airport: широта 34.6069 долгота -120.0756 высота над уровнем моря 205 м.
В архиве по умолчанию представлена погода в Санта-Инесе за последние 1-2 суток. Обновление информации о фактической погоде в базе происходит ежечасно! Архивные данные за месяц целиком и за предыдущие месяцы Вы можете получить, выбрав интересующий диапазон дат из раскрывающегося списка и нажав кнопку "Ввод!".
Внимание! Архив погоды МЕТАР в базе сайта по станциям, не включенным в климатический монитор, хранится не более 60 дней. Нет смысла пытаться выбрать более раннюю дату.
*Определитесь, кто Вы:
Внимание! Время в таблицах - местное (без учета летнего времени). Для получения всемирного времени необходимо вычесть поправку, которая равна -8 ч.
Смотрите также архив погоды в соседних городах и на ближайших метеорологических станциях:
Партнеры нашего сайта:      
Пояснения к столбцам:
  • Ветер - указаны скорость ветра в м/с - средняя за 10 мин, порывы в срок и между сроками (в фигурных скобках) и направление, откуда дует ветер: С - северный,
  • СВ - северо-восточный, В - восточный, ЮВ - юго-восточный, Ю - южный, ЮЗ - юго-западный, З - западный, СЗ - северо-западный.
  • Видимость - горизонтальная дальность видимости в метрах или километрах. При видимости от 1 до 10 км при отсутствии осадков обычно наблюдается дымка, при ухудшении видимости до 1 км и менее - туман. В сухую погоду видимость может ухудшаться дымом, пылью или мглою.
  • Явления - указаны атмосферные явления, наблюдавшиеся в срок или в последний час перед сроком; фигурными скобками обозначены явления, наблюдавшиеся между сроками (за 1-3 часа до срока); квадратными скобками обозначены град или гололедные отложения с указанием их диаметра в мм.
  • Облачность - указаны через наклонную черту общая и нижняя облачность в баллах и высота нижней границы облаков в метрах; квадратными скобками обозначены формы облаков: Ci - перистые, Cs - перисто-слоистые, Cc - перисто-кучевые, Ac - высококучевые, As - высокослоистые, Sc - слоисто-кучевые, Ns - слоисто-дождевые, Cu - кучевые, Cb - кучево-дождевые. Подробнее классификацию облаков см. в Атласе облаков (PDF).
  • T - Температура воздуха - температура, измеренная на высоте 2 м над землей.
  • Td - Температура точки росы - температура, при понижении до которой содержащийся в воздухе водяной пар достигнет насыщения.
  • f - Относительная влажность воздуха - влажноcть воздуха, измеренная на высоте 2 м над землей.
  • Te - Эффективная температура - температура, которую ощущает одетый по сезону человек в тени. Характеристика душности погоды. При расчете учитывается влияние влажности воздуха и скорости ветра на теплоощущения человека.
  • Tes - Эффективная температура на солнце - температура, которую ощущает человек, с поправкой на солнечный нагрев. Характеристика знойности погоды. Зависит от высоты солнца над горизонтом, облачности и скорости ветра. Ночью, в пасмурную погоду, а также при ветре 12 м/с и более поправка равна нулю.
  • P - Атмосферное давление - приведенное к уровню моря атмосферное давление.
  • Po - Атмосферное давление - измеренное на уровне метеостанции атмосферное давление.
  • Tmin - Минимальная температура - минимум температуры воздуха на высоте 2 м над землей.
  • Tmax - Максимальная температура - максимум температуры воздуха на высоте 2 м над землей.
  • R - Количество осадков - Количество выпавших осадков за период времени, мм. При наведении курсора мыши на число - период времени, за который выпало указанное количество осадков.
  • R24 - Количество осадков - Количество выпавших осадков за 24 часа, мм.
  • S - Снежный покров - Высота снежного покрова, см. При наведении курсора мыши на число - состояние снежного покрова и степень покрытия местности в баллах.